Regional Weather Roundup
Issued by NWS Cleveland, OH

Home | Current Version | Previous Version | Text Only | Print | Product List | Glossary On
Versions: 1 2 3 4 5 6 7 8 9 10 11 12 13 14 15 16 17 18 19 20 21 22 23 24 25 26 27 28 29 30 31 32 33 34 35 36 37 38 39 40 41 42 43 44 45 46 47 48 49 50
000
ASUS41 KCLE 270702
RWRCLE
OHIO REGIONAL WEATHER ROUNDUP
NATIONAL WEATHER SERVICE CLEVELAND, OH
200 AM EST MON FEB 27 2017

NOTE: "FAIR" INDICATES FEW OR NO CLOUDS BELOW 12,000 FEET WITH NO
SIGNIFICANT WEATHER AND/OR OBSTRUCTIONS TO VISIBILITY.

OHZ001>008-015>018-024>027-034-035-043-044-270800-
   NORTHWEST OHIO

CITY           SKY/WX    TMP DP  RH WIND       PRES   REMARKS
DEFIANCE       CLEAR     30  22  72 S3        30.14R
FINDLAY        PTCLDY    36  22  56 S13       30.14S
TOLEDO EXPRESS MOCLDY    35  22  58 SW7       30.13R WCI  29
TOLEDO EXEC    CLOUDY    36  23  59 SW8       30.15R
LIMA           PTCLDY    37  22  54 S10       30.15R
$$

OHZ009>014-019>023-028>033-038-089-270800-
   NORTHEAST OHIO

CITY           SKY/WX    TMP DP  RH WIND       PRES   REMARKS
CLE-HOPKINS    CLEAR     38  18  44 S12       30.19R
CLE-LAKEFRONT  CLEAR     40  17  39 S17       30.16R
CUY CO. ARPT   NOT AVBL
LORAIN-ELYRIA  CLEAR     33  18  53 S8        30.18R WCI  26
ASHTABULA      PTCLDY    34  18  52 SW10      30.17R WCI  26
AKRON-CANTON   NOT AVBL
WOOSTER        CLEAR     33  18  53 S9        30.19R WCI  25
MANSFIELD      CLEAR     33  20  58 S10       30.17R WCI  25
YOUNGSTOWN     PTCLDY    33  15  47 SW7       30.18R WCI  27
$$

OHZ042-051>053-060>062-070>072-077>081-270800-
  SOUTHWEST OHIO

CITY           SKY/WX    TMP DP  RH WIND       PRES   REMARKS
CINC-COVINGTON CLOUDY    40  22  48 SE3       30.18R
CINC-LUNKEN    CLOUDY    39  27  62 CALM      30.21S
HAMILTON       CLOUDY    39  25  57 CALM      30.20S
DAYTON         CLOUDY    40  19  43 S9        30.18R
WRIGHT-PAT AFB NOT AVBL
DAYTON GENERAL CLOUDY    39  21  48 S7        30.17S
WILMINGTON     CLOUDY    37  24  59 S6        30.18S
$$

OHZ036-037-039>041-045>050-054>059-063>069-073>076-082>088-270800-
  CENTRAL AND SOUTHEAST OHIO

CITY           SKY/WX    TMP DP  RH WIND       PRES   REMARKS
COLUMBUS       CLOUDY    41  21  44 S6        30.20R
OSU AIRPORT    CLOUDY    39  21  48 S6        30.19R
BOLTON FIELD   NOT AVBL
RICKENBACK AFB CLOUDY    38  22  52 S7        30.21R
NEWARK         CLOUDY    35  20  54 CALM      30.20R
MARION         CLOUDY    36  22  56 S10       30.18R
LANCASTER      CLOUDY    40  20  44 S6        30.21R
ZANESVILLE     CLOUDY    33  21  61 SE3       30.22R
NEW PHILLY     NOT AVBL
$$




USA.gov is the U.S. government's official web portal to all federal, state and local government web resources and services.